Wind_Speed
33 33 32 31 30 29 28 29 31 33 35 36 37 37 37 36 35 35 35 36 36 36 36 37 37 38 38 39 40 40 40 40 39 38 36 34 32 32 32 33 34 36
36 36 35 33 32 30 29 29 30 31 33 35 37 37 37 36 36 36 36 36 37 36 37 37 37 38 39 40 41 41 41 40 39 37 35 33 32 32 33 34 36 38
40 38 38 37 35 32 31 31 30 31 33 35 36 37 37 36 36 37 37 37 37 37 37 37 38 39 40 41 42 42 41 40 38 36 34 32 33 34 35 36 38 40
43 40 39 39 38 35 32 32 31 31 32 33 35 36 37 37 37 37 38 38 38 38 38 38 39 39 40 41 42 42 40 38 36 34 33 32 34 35 37 39 40 42
44 42 40 39 39 37 34 33 32 32 33 33 34 36 38 38 38 38 39 39 38 38 39 39 39 39 40 41 41 41 39 37 34 33 32 33 35 37 38 40 42 43
45 43 41 40 40 38 36 34 33 33 34 34 34 36 38 38 39 39 39 39 39 39 39 39 38 39 40 40 40 39 37 34 32 32 33 34 35 37 38 41 42 44
46 45 43 41 40 39 38 36 35 35 35 35 35 36 37 38 39 39 39 39 39 39 38 38 38 39 39 40 39 37 35 32 31 32 33 34 36 37 39 41 43 45
46 46 46 44 42 40 40 38 38 37 36 36 36 36 37 38 39 39 39 39 38 38 37 37 37 38 38 38 37 35 32 30 31 32 33 34 36 38 40 42 44 46
47 47 48 47 44 43 41 40 40 39 38 38 37 37 38 38 39 39 38 38 37 37 36 36 36 36 36 36 34 32 30 30 31 31 32 34 36 39 41 43 44 46
49 48 48 48 46 45 43 42 42 42 40 40 39 39 38 38 39 38 38 37 37 36 35 35 35 35 35 34 31 30 29 29 30 31 33 35 37 40 42 43 45 46
50 50 49 49 48 47 45 44 44 44 43 42 42 41 39 39 39 38 38 37 36 35 34 33 33 33 33 31 30 29 29 30 31 32 34 36 38 41 42 44 46 46
53 51 49 49 49 48 46 45 46 46 44 44 44 42 41 40 40 38 37 36 35 33 32 32 32 32 30 29 29 29 30 30 32 33 35 37 39 42 43 45 47 48
54 52 50 49 49 48 47 47 47 46 45 46 46 45 43 41 40 39 37 35 33 32 31 31 31 29 29 29 29 30 31 32 33 35 37 39 41 43 44 46 48 50
53 52 50 49 48 48 47 48 48 46 46 47 47 46 45 43 41 39 37 35 32 31 30 30 28 28 29 30 30 31 32 33 35 36 38 40 42 44 45 48 50 52
52 50 49 48 48 48 47 47 47 46 46 47 47 47 46 44 42 39 37 34 31 30 30 29 27 28 29 30 32 33 34 35 36 38 40 42 43 45 47 49 51 53
49 49 48 47 47 47 46 46 46 46 46 47 47 47 46 45 42 39 36 33 30 30 29 27 27 28 30 31 33 35 35 36 37 38 41 42 44 46 48 50 52 54
44 45 44 43 44 44 44 45 45 46 46 47 48 47 46 45 42 39 36 32 30 30 29 27 27 29 31 32 34 35 36 37 38 39 41 42 44 47 49 51 53 56
36 37 38 38 40 41 42 43 44 45 46 47 48 47 46 45 42 39 36 33 31 30 29 28 29 30 31 33 34 35 36 37 38 39 41 43 45 47 49 51 54 56
31 32 33 35 38 39 41 42 43 45 46 47 48 48 47 46 43 40 37 33 31 31 30 29 30 31 32 33 34 34 36 37 38 39 41 43 45 48 50 52 54 55
31 32 32 33 35 37 39 42 43 45 47 48 49 48 47 46 43 40 37 34 33 32 30 29 30 32 32 33 33 34 35 36 37 38 40 42 45 48 50 52 54 54
31 32 32 32 33 36 39 41 44 46 47 48 49 48 48 46 44 41 38 35 34 32 30 30 32 32 32 32 33 34 35 36 37 38 40 42 45 48 50 52 53 54
27 28 29 30 32 36 39 42 44 46 47 49 49 49 49 47 45 41 38 35 35 33 32 31 31 31 31 33 34 34 35 35 36 38 41 43 45 48 49 51 52 53
27 26 26 28 30 34 38 41 44 46 48 50 51 51 50 48 44 40 37 36 36 35 32 30 30 31 31 32 34 34 35 35 36 39 41 43 45 48 49 50 51 52
32 29 28 28 29 32 35 39 43 46 49 51 52 53 51 48 44 40 38 37 36 34 31 29 29 30 31 32 33 34 35 35 37 39 41 43 45 48 49 50 51 51
36 34 32 32 32 32 34 38 42 45 49 52 53 54 51 48 43 40 38 36 34 33 30 28 28 29 30 32 33 33 34 36 38 40 41 43 46 48 49 50 51 51
38 37 36 36 36 35 36 38 41 45 48 51 53 53 51 47 42 39 37 35 34 31 28 26 27 28 30 31 32 33 34 36 38 40 42 44 47 48 50 51 51 51
Wind_Direction
312 311 309 307 304 301 296 289 284 281 277 274 272 270 269 269 270 271 272 274 276 278 280 283 285 288 290 292 293 294 297 298 299 298 297 297 298 300 302 304 305 304
311 310 308 307 305 304 300 295 289 283 279 276 273 271 271 270 270 270 271 273 276 278 280 283 285 287 289 290 292 294 296 298 299 298 298 300 302 304 306 305 305 305
308 308 307 305 305 304 302 299 293 287 282 278 275 273 272 270 269 269 270 272 275 277 279 281 283 286 288 289 292 294 297 299 299 299 301 304 306 306 306 306 305 306
305 305 306 304 304 303 301 300 297 291 286 281 277 274 272 270 269 268 270 271 274 275 277 280 282 285 287 289 291 295 297 299 300 301 304 305 305 306 306 306 307 307
303 303 304 303 302 301 299 299 298 293 289 284 279 275 272 270 268 267 268 270 272 274 276 279 282 285 287 289 292 295 297 299 301 303 304 305 305 306 307 307 308 309
302 302 303 302 300 300 298 297 296 293 289 284 279 275 271 268 266 266 267 268 271 272 275 278 281 284 286 289 293 295 297 300 302 303 304 305 307 308 309 309 311 311
302 300 301 301 299 298 296 295 294 291 287 282 278 274 270 266 265 265 266 268 270 272 275 278 281 284 287 290 293 295 298 301 302 302 305 307 308 310 311 312 312 313
300 298 299 299 297 296 294 292 291 288 284 280 276 273 269 265 264 264 266 267 269 272 275 278 282 285 287 291 294 296 299 301 301 303 305 307 309 312 313 313 314 315
296 295 296 296 295 294 292 290 287 284 280 277 274 271 268 265 264 265 266 268 270 273 276 279 282 285 288 291 294 296 298 299 300 303 305 309 312 313 315 316 316 317
291 291 292 292 292 291 290 288 285 281 278 275 272 270 268 266 265 265 266 268 270 273 276 280 283 286 288 291 293 295 296 297 299 303 307 311 314 315 317 318 319 319
287 287 288 289 289 289 288 286 283 279 276 273 271 270 269 266 265 266 267 269 271 273 277 280 282 285 287 289 292 293 293 296 299 304 309 312 314 316 318 319 320 322
283 284 286 286 286 286 286 284 281 277 274 272 271 269 268 266 265 266 267 269 271 274 276 279 281 284 285 286 289 290 291 295 300 305 310 313 315 317 319 321 322 323
280 282 284 283 282 284 284 281 279 277 273 272 270 268 267 266 265 266 267 268 271 273 275 277 280 282 283 284 286 288 291 296 302 306 310 312 314 317 319 322 323 323
278 279 281 280 279 281 281 280 279 277 274 272 270 268 266 265 265 265 266 267 269 271 272 275 277 278 280 282 285 288 292 298 302 306 309 312 313 317 320 321 321 322
275 276 277 276 277 279 279 279 278 277 274 272 271 268 266 265 264 265 265 266 267 269 270 272 273 275 278 282 285 289 294 298 302 306 309 311 314 317 319 319 320 322
276 275 274 275 276 278 278 278 277 276 274 273 270 268 265 264 264 264 264 265 265 267 268 269 270 273 277 282 286 290 294 298 302 305 308 311 315 316 317 318 321 323
279 278 277 276 277 278 277 277 275 274 273 272 270 267 265 263 263 263 263 262 263 265 265 265 268 273 278 283 287 291 295 298 302 306 309 313 315 315 317 320 322 324
285 283 282 280 279 278 276 274 273 271 271 270 268 266 263 262 261 261 260 260 262 263 261 262 267 272 277 282 288 293 297 299 303 308 311 314 315 316 318 321 323 325
292 290 288 286 283 279 275 272 269 269 268 267 266 264 261 260 259 258 258 258 259 260 258 260 266 272 277 282 288 294 297 301 306 310 312 314 315 317 319 322 324 324
293 291 290 288 284 280 275 270 267 266 265 264 263 261 259 258 256 255 255 256 258 259 258 261 265 270 277 284 289 294 298 303 306 309 312 314 315 318 321 323 324 323
294 293 290 287 284 279 274 269 266 265 264 263 262 260 258 256 254 254 255 255 257 257 256 259 264 270 278 285 290 295 299 303 307 310 312 314 316 319 322 323 323 323
301 297 294 291 288 282 276 272 268 265 264 262 261 259 257 255 254 254 255 256 257 256 255 258 264 271 279 286 291 295 299 303 307 310 312 314 317 320 322 323 323 322
306 303 299 296 294 289 284 279 274 269 266 263 261 258 256 254 254 256 257 257 257 256 256 259 265 273 280 286 291 295 298 304 308 310 313 315 318 319 321 322 322 322
306 307 305 302 299 295 291 286 280 275 269 265 262 259 256 255 257 258 257 256 256 256 256 258 264 272 281 286 291 295 300 305 309 311 313 316 317 319 320 321 322 322
302 303 306 306 304 301 296 290 284 278 273 268 264 260 257 256 257 256 255 254 256 256 254 257 265 273 281 287 291 296 301 306 309 311 314 315 316 317 319 320 322 322
299 299 301 303 303 301 297 291 286 281 276 271 265 260 257 255 254 253 253 254 255 253 252 257 267 276 282 287 292 298 303 307 309 312 314 314 315 316 318 321 323 323
Height
3027 3026 3025 3025 3024 3024 3023 3022 3021 3020 3019 3019 3018 3018 3017 3017 3017 3017 3016 3015 3014 3014 3013 3012 3011 3010 3010 3010 3010 3010 3010 3010 3009 3008 3006 3005 3004 3003 3002 3001 2999 2997
3022 3021 3020 3020 3019 3019 3018 3017 3016 3015 3014 3013 3012 3012 3012 3012 3012 3011 3011 3010 3009 3009 3008 3007 3006 3005 3005 3005 3005 3005 3005 3005 3004 3002 3001 3000 2999 2997 2996 2994 2992 2990
3017 3016 3015 3014 3014 3013 3013 3012 3011 3010 3009 3008 3007 3007 3007 3006 3006 3006 3005 3005 3004 3004 3003 3002 3001 3000 3000 3000 3000 3001 3000 3000 2998 2997 2995 2994 2993 2991 2990 2988 2986 2984
3012 3011 3010 3009 3008 3008 3008 3007 3006 3005 3004 3003 3002 3002 3002 3002 3001 3001 3000 3000 2999 2999 2998 2997 2996 2996 2996 2995 2996 2996 2995 2995 2993 2991 2990 2989 2987 2985 2984 2981 2979 2977
3007 3006 3005 3004 3003 3003 3002 3002 3001 3000 2999 2998 2998 2997 2997 2997 2996 2996 2995 2995 2994 2994 2993 2992 2991 2991 2991 2991 2991 2991 2990 2989 2988 2986 2985 2984 2982 2980 2978 2975 2972 2971
3003 3001 3000 2999 2998 2998 2997 2997 2996 2995 2995 2994 2993 2992 2991 2991 2991 2990 2990 2989 2989 2988 2988 2987 2987 2987 2987 2987 2986 2986 2985 2984 2983 2981 2979 2978 2976 2974 2972 2969 2966 2964
2998 2996 2995 2994 2993 2993 2992 2992 2991 2991 2990 2989 2988 2987 2986 2986 2986 2985 2985 2984 2984 2983 2982 2982 2982 2982 2982 2982 2981 2980 2980 2978 2977 2976 2974 2972 2970 2968 2966 2963 2961 2958
2992 2991 2990 2989 2989 2988 2987 2987 2987 2986 2985 2984 2983 2982 2982 2981 2981 2981 2980 2979 2979 2978 2977 2977 2977 2977 2977 2976 2976 2975 2974 2973 2972 2970 2968 2967 2965 2962 2960 2957 2954 2951
2987 2986 2985 2984 2984 2983 2982 2982 2981 2981 2980 2979 2978 2978 2977 2977 2976 2976 2975 2975 2974 2973 2973 2972 2972 2972 2971 2971 2970 2970 2969 2968 2967 2965 2963 2961 2959 2956 2954 2951 2948 2945
2981 2981 2980 2979 2979 2978 2977 2977 2976 2975 2975 2974 2974 2973 2973 2972 2972 2971 2971 2970 2970 2969 2968 2968 2967 2967 2967 2966 2966 2965 2964 2963 2962 2960 2957 2955 2953 2950 2947 2944 2941 2939
2976 2975 2975 2974 2974 2973 2972 2972 2970 2970 2970 2969 2969 2969 2968 2968 2967 2967 2967 2966 2966 2965 2964 2963 2962 2962 2962 2961 2961 2960 2959 2958 2956 2954 2952 2949 2947 2944 2941 2938 2935 2932
2969 2969 2969 2969 2968 2967 2967 2966 2965 2964 2964 2964 2964 2964 2964 2963 2963 2962 2962 2962 2961 2960 2959 2959 2958 2958 2957 2957 2956 2955 2954 2953 2951 2948 2946 2944 2942 2939 2936 2932 2929 2926
2963 2962 2962 2962 2962 2961 2961 2960 2959 2959 2959 2959 2959 2959 2959 2958 2958 2958 2957 2957 2957 2956 2955 2954 2954 2953 2952 2952 2951 2950 2949 2947 2945 2943 2941 2939 2936 2933 2930 2926 2923 2920
2956 2955 2955 2955 2955 2954 2954 2953 2954 2954 2954 2954 2954 2954 2954 2954 2953 2953 2953 2952 2952 2951 2951 2950 2949 2949 2948 2947 2946 2945 2943 2941 2940 2938 2935 2933 2930 2927 2923 2920 2917 2915
2948 2947 2948 2948 2947 2947 2947 2947 2948 2949 2949 2949 2949 2949 2949 2949 2948 2948 2948 2948 2948 2947 2947 2946 2945 2944 2944 2943 2942 2940 2938 2936 2934 2932 2930 2928 2924 2920 2917 2915 2912 2908
2940 2940 2940 2940 2940 2940 2941 2941 2942 2943 2943 2944 2944 2944 2944 2943 2944 2944 2943 2943 2943 2943 2942 2941 2941 2940 2940 2939 2937 2935 2933 2931 2929 2928 2925 2921 2918 2914 2911 2909 2905 2901
2933 2933 2932 2932 2932 2933 2934 2935 2936 2937 2937 2938 2938 2938 2938 2938 2938 2938 2939 2939 2939 2938 2937 2937 2937 2936 2935 2934 2933 2930 2928 2927 2924 2922 2919 2914 2911 2908 2905 2902 2897 2893
2927 2926 2926 2926 2926 2927 2927 2928 2929 2930 2931 2931 2931 2931 2932 2932 2932 2933 2933 2933 2933 2933 2933 2932 2932 2932 2931 2930 2928 2926 2923 2921 2919 2915 2911 2908 2905 2902 2898 2894 2890 2886
2922 2921 2921 2921 2921 2921 2921 2922 2923 2923 2924 2924 2924 2924 2925 2925 2926 2926 2927 2927 2927 2927 2927 2928 2927 2927 2927 2925 2924 2922 2919 2915 2913 2909 2906 2903 2899 2896 2892 2888 2884 2879
2917 2916 2916 2916 2915 2915 2916 2916 2917 2917 2917 2917 2917 2918 2918 2918 2919 2919 2920 2921 2921 2922 2922 2923 2923 2922 2922 2921 2919 2917 2914 2910 2907 2904 2901 2898 2894 2890 2885 2881 2877 2873
2912 2911 2911 2910 2910 2910 2910 2911 2911 2911 2911 2911 2912 2912 2912 2912 2912 2913 2914 2915 2915 2916 2917 2917 2917 2917 2917 2916 2914 2912 2909 2906 2903 2899 2896 2893 2889 2884 2880 2876 2872 2866
2907 2906 2906 2906 2906 2906 2906 2906 2906 2906 2906 2906 2906 2906 2906 2906 2906 2907 2908 2909 2909 2910 2910 2911 2912 2913 2912 2911 2909 2907 2904 2901 2898 2894 2891 2888 2883 2879 2875 2871 2866 2861
2902 2901 2901 2901 2901 2901 2901 2901 2901 2900 2900 2900 2900 2900 2900 2900 2901 2902 2903 2903 2903 2903 2904 2906 2907 2907 2907 2906 2904 2902 2899 2896 2893 2890 2886 2882 2878 2874 2870 2866 2861 2856
2897 2896 2895 2895 2895 2895 2896 2895 2895 2895 2894 2894 2894 2893 2894 2895 2896 2898 2898 2897 2898 2898 2899 2900 2901 2901 2901 2900 2899 2896 2893 2890 2888 2884 2881 2877 2873 2869 2865 2861 2857 2851
2892 2891 2891 2890 2890 2890 2890 2890 2890 2889 2888 2888 2888 2888 2888 2890 2891 2892 2892 2892 2892 2893 2894 2895 2895 2896 2895 2895 2893 2891 2887 2885 2882 2879 2875 2871 2868 2864 2860 2856 2851 2846
2887 2887 2886 2886 2885 2885 2885 2884 2884 2883 2882 2882 2882 2882 2883 2884 2885 2886 2886 2887 2888 2888 2889 2890 2890 2890 2890 2889 2888 2885 2882 2880 2877 2874 2870 2866 2862 2859 2854 2850 2845 2840